Location: Kott?ru
(16.6209°N, 80.6208°E)
Time: 19:56:47
(UTC+00:00)

Milstar 3 Cent rocket - Pass Details

Date: 18 September 2020
Orbit: 707 x 5145 km, 28.3° (Epoch: 27 October)

Event Time Altitude Azimuth Distance (km) Brightness Sun altitude
Exits shadow 22:36:35 36° 231° (SW) 2,956 4.5 -26.9°
Maximum altitude 22:39:44 40° 202° (SSW) 3,150 4.8 -26.2°
Drops below altitude 10° 22:58:33 10° 140° (SE) 7,184 7.3 -21.7°
Sets 23:06:23 0° 134° (SE) 8,849 8.0 -19.9°
